TimeCST,TemperatureF,Dew PointF,Humidity,Sea Level PressureIn,VisibilityMPH,Wind Direction,Wind SpeedMPH,Gust SpeedMPH,PrecipitationIn,Events,Conditions,WindDirDegrees,DateUTC
12:15 AM,28.8,26.2,90,30.13,10.0,Calm,Calm,-,N/A,,Clear,0,2013-01-09 06:15:00
12:35 AM,21.7,19.8,92,30.15,5.0,South,3.5,-,N/A,,Clear,180,2013-01-09 06:35:00
12:55 AM,26.2,24.4,93,30.16,10.0,WSW,5.8,-,N/A,,Clear,250,2013-01-09 06:55:00
1:15 AM,31.6,27.1,83,30.17,10.0,West,3.5,-,N/A,,Clear,280,2013-01-09 07:15:00
1:35 AM,32.2,27.1,82,30.18,10.0,West,4.6,-,N/A,,Clear,270,2013-01-09 07:35:00
1:55 AM,32.2,26.8,80,30.20,10.0,WNW,5.8,-,N/A,,Clear,290,2013-01-09 07:55:00
2:15 AM,33.1,27.5,80,30.20,10.0,WNW,5.8,-,N/A,,Clear,290,2013-01-09 08:15:00
2:35 AM,29.3,24.3,81,30.22,10.0,Calm,Calm,-,N/A,,Clear,0,2013-01-09 08:35:00
2:55 AM,33.1,26.6,77,30.23,10.0,Calm,Calm,-,N/A,,Clear,0,2013-01-09 08:55:00
3:15 AM,29.7,23.0,76,30.23,10.0,NW,5.8,-,N/A,,Clear,310,2013-01-09 09:15:00
3:35 AM,29.5,24.4,81,30.24,10.0,West,4.6,-,N/A,,Clear,280,2013-01-09 09:35:00
3:55 AM,32.0,26.4,80,30.25,10.0,West,3.5,-,N/A,,Clear,280,2013-01-09 09:55:00
4:15 AM,32.5,26.1,77,30.25,10.0,SW,3.5,-,N/A,,Clear,230,2013-01-09 10:15:00
4:35 AM,30.7,25.3,80,30.25,10.0,Calm,Calm,-,N/A,,Clear,0,2013-01-09 10:35:00
4:55 AM,29.3,24.1,81,30.23,10.0,WNW,5.8,-,N/A,,Clear,300,2013-01-09 10:55:00
5:15 AM,21.4,16.5,82,30.23,10.0,Calm,Calm,-,N/A,,Clear,0,2013-01-09 11:15:00
5:35 AM,18.9,16.9,92,30.24,10.0,Calm,Calm,-,N/A,,Clear,0,2013-01-09 11:35:00
5:55 AM,22.1,19.8,91,30.24,10.0,Calm,Calm,-,N/A,,Clear,0,2013-01-09 11:55:00
6:15 AM,19.0,16.5,90,30.25,10.0,South,3.5,-,N/A,,Clear,190,2013-01-09 12:15:00
6:55 AM,23.5,20.5,88,30.27,10.0,West,5.8,-,N/A,,Clear,260,2013-01-09 12:55:00
7:15 AM,24.8,22.1,89,30.27,10.0,West,3.5,-,N/A,,Clear,270,2013-01-09 13:15:00
7:35 AM,25.5,22.5,88,30.28,10.0,West,5.8,-,N/A,,Clear,270,2013-01-09 13:35:00
7:55 AM,25.3,21.7,86,30.32,10.0,SSW,10.4,-,N/A,,Clear,210,2013-01-09 13:55:00
8:15 AM,24.8,21.0,86,30.36,10.0,South,8.1,-,N/A,,Clear,180,2013-01-09 14:15:00
8:35 AM,25.7,22.3,87,30.38,10.0,WSW,3.5,-,N/A,,Clear,240,2013-01-09 14:35:00
8:55 AM,27.1,22.5,83,30.40,10.0,SSW,8.1,12.7,N/A,,Clear,200,2013-01-09 14:55:00
9:15 AM,29.3,23.7,80,30.40,10.0,SW,8.1,-,N/A,,Clear,220,2013-01-09 15:15:00
9:35 AM,29.7,23.7,79,30.42,10.0,SW,3.5,-,N/A,,Clear,220,2013-01-09 15:35:00
9:55 AM,30.0,23.9,78,30.42,10.0,Calm,Calm,-,N/A,,Clear,0,2013-01-09 15:55:00
10:15 AM,31.3,24.6,76,30.42,10.0,WSW,3.5,-,N/A,,Clear,240,2013-01-09 16:15:00
10:35 AM,32.0,24.8,75,30.42,10.0,SW,5.8,-,N/A,,Clear,230,2013-01-09 16:35:00
10:55 AM,32.7,25.5,75,30.42,10.0,Calm,Calm,-,N/A,,Clear,0,2013-01-09 16:55:00
11:15 AM,31.8,25.9,79,30.41,10.0,Calm,Calm,-,N/A,,Clear,0,2013-01-09 17:15:00
11:35 AM,32.9,27.0,79,30.40,10.0,Calm,Calm,-,N/A,,Clear,0,2013-01-09 17:35:00
12:15 PM,34.5,27.5,76,30.39,10.0,SE,3.5,-,N/A,,Clear,130,2013-01-09 18:15:00
12:35 PM,35.6,28.0,74,30.38,10.0,ESE,3.5,-,N/A,,Clear,120,2013-01-09 18:35:00
12:55 PM,35.1,28.4,77,30.36,10.0,SE,3.5,-,N/A,,Clear,140,2013-01-09 18:55:00
1:15 PM,35.4,29.1,78,30.35,10.0,SE,5.8,-,N/A,,Clear,140,2013-01-09 19:15:00
1:35 PM,35.8,28.6,75,30.34,10.0,SSE,4.6,-,N/A,,Clear,160,2013-01-09 19:35:00
1:55 PM,35.8,28.4,75,30.34,10.0,SSE,4.6,-,N/A,,Clear,150,2013-01-09 19:55:00
2:15 PM,37.4,28.8,71,30.34,10.0,SSE,5.8,-,N/A,,Clear,160,2013-01-09 20:15:00
2:35 PM,37.4,29.3,73,30.34,10.0,SSE,4.6,-,N/A,,Clear,150,2013-01-09 20:35:00
2:55 PM,37.6,29.7,73,30.34,10.0,SE,3.5,-,N/A,,Clear,140,2013-01-09 20:55:00
3:15 PM,36.9,29.3,74,30.34,10.0,SSE,4.6,-,N/A,,Clear,150,2013-01-09 21:15:00
3:35 PM,36.3,29.8,77,30.35,10.0,SSE,4.6,-,N/A,,Clear,150,2013-01-09 21:35:00
3:55 PM,35.1,29.5,80,30.34,10.0,SE,4.6,-,N/A,,Clear,140,2013-01-09 21:55:00
4:15 PM,35.4,29.8,80,30.33,10.0,SE,4.6,-,N/A,,Clear,140,2013-01-09 22:15:00
4:35 PM,32.4,28.6,86,30.33,10.0,ESE,4.6,-,N/A,,Clear,120,2013-01-09 22:35:00
4:55 PM,32.0,28.2,86,30.33,10.0,SE,5.8,-,N/A,,Clear,140,2013-01-09 22:55:00
5:15 PM,32.9,28.8,85,30.33,10.0,East,3.5,-,N/A,,Clear,80,2013-01-09 23:15:00
5:35 PM,31.8,27.9,85,30.34,10.0,ESE,3.5,-,N/A,,Clear,120,2013-01-09 23:35:00
5:55 PM,31.6,28.4,88,30.33,10.0,SE,3.5,-,N/A,,Clear,140,2013-01-09 23:55:00
6:15 PM,31.3,27.7,87,30.34,10.0,SE,5.8,-,N/A,,Clear,140,2013-01-10 00:15:00
6:35 PM,30.6,27.3,88,30.33,10.0,SSE,5.8,-,N/A,,Clear,150,2013-01-10 00:35:00
6:55 PM,30.2,27.3,89,30.34,10.0,SSE,5.8,-,N/A,,Clear,160,2013-01-10 00:55:00
7:15 PM,30.0,26.6,87,30.34,10.0,South,6.9,-,N/A,,Clear,170,2013-01-10 01:15:00
7:35 PM,29.3,26.6,90,30.33,10.0,South,6.9,-,N/A,,Clear,170,2013-01-10 01:35:00
7:55 PM,30.2,27.5,90,30.34,10.0,South,6.9,-,N/A,,Clear,170,2013-01-10 01:55:00
8:35 PM,32.5,29.1,87,30.33,10.0,South,5.8,-,N/A,,Clear,180,2013-01-10 02:35:00
8:55 PM,32.2,28.6,87,30.32,10.0,SSE,3.5,-,N/A,,Clear,160,2013-01-10 02:55:00
9:15 PM,26.2,23.9,91,30.31,7.0,ESE,4.6,-,N/A,,Clear,120,2013-01-10 03:15:00
9:35 PM,26.2,24.1,92,30.31,7.0,ESE,6.9,-,N/A,,Clear,120,2013-01-10 03:35:00
9:55 PM,27.0,25.0,92,30.32,10.0,ESE,6.9,-,N/A,,Clear,120,2013-01-10 03:55:00
10:15 PM,28.6,26.1,90,30.33,10.0,SSE,3.5,-,N/A,,Clear,150,2013-01-10 04:15:00
10:35 PM,29.5,27.3,92,30.33,10.0,South,5.8,-,N/A,,Clear,170,2013-01-10 04:35:00
10:55 PM,27.5,25.5,92,30.34,10.0,South,9.2,-,N/A,,Clear,180,2013-01-10 04:55:00
11:15 PM,28.6,26.6,92,30.33,10.0,South,8.1,-,N/A,,Clear,180,2013-01-10 05:15:00
11:35 PM,27.7,25.0,90,30.33,10.0,SSE,6.9,-,N/A,,Clear,150,2013-01-10 05:35:00
11:55 PM,26.4,24.6,93,30.32,10.0,South,3.5,-,N/A,,Clear,170,2013-01-10 05:55:00